Time,TemperatureF,DewpointF,PressureIn,WindDirection,WindDirectionDegrees,WindSpeedMPH,WindSpeedGustMPH,Humidity,HourlyPrecipIn,Conditions,Clouds,dailyrainin,SolarRadiationWatts/m^2,SoftwareType,DateUTC
2013-02-06 00:01:00,33.0,19.0,-100.00,West,269,4.0,10.0,57,0.00,,,0.00,0.000000,,2013-02-06 07:01:00,
2013-02-06 00:32:00,31.0,19.0,-100.00,WSW,243,3.0,9.0,61,0.00,,,0.00,0.000000,,2013-02-06 07:32:00,
2013-02-06 00:42:00,31.0,19.0,-100.00,WSW,243,3.0,9.0,61,0.00,,,0.00,0.000000,,2013-02-06 07:42:00,
2013-02-06 00:52:00,31.0,19.0,-100.00,WSW,243,3.0,9.0,61,0.00,,,0.00,0.000000,,2013-02-06 07:52:00,
2013-02-06 01:01:00,31.0,19.0,-100.00,WSW,243,3.0,9.0,61,0.00,,,0.00,0.000000,,2013-02-06 08:01:00,
2013-02-06 01:32:00,32.0,20.0,-100.00,SW,228,3.0,9.0,60,0.00,,,0.00,0.000000,,2013-02-06 08:32:00,
2013-02-06 01:42:00,32.0,20.0,-100.00,SW,228,3.0,9.0,60,0.00,,,0.00,0.000000,,2013-02-06 08:42:00,
2013-02-06 01:53:00,32.0,20.0,-100.00,SW,228,3.0,9.0,60,0.00,,,0.00,0.000000,,2013-02-06 08:53:00,
2013-02-06 02:01:00,32.0,20.0,-100.00,SW,228,3.0,9.0,60,0.00,,,0.00,0.000000,,2013-02-06 09:01:00,
2013-02-06 02:32:00,33.0,20.0,-100.00,SE,136,8.0,8.0,59,0.00,,,0.00,0.000000,,2013-02-06 09:32:00,
2013-02-06 02:42:00,33.0,20.0,-100.00,SE,136,8.0,8.0,59,0.00,,,0.00,0.000000,,2013-02-06 09:42:00,
2013-02-06 02:52:00,33.0,20.0,-100.00,SE,136,8.0,8.0,59,0.00,,,0.00,0.000000,,2013-02-06 09:52:00,
2013-02-06 03:01:00,33.0,20.0,-100.00,SE,136,8.0,8.0,59,0.00,,,0.00,0.000000,,2013-02-06 10:01:00,
2013-02-06 03:32:00,34.0,22.0,-100.00,SW,221,1.0,12.0,60,0.00,,,0.00,0.000000,,2013-02-06 10:32:00,
2013-02-06 03:42:00,34.0,22.0,-100.00,SW,221,1.0,12.0,60,0.00,,,0.00,0.000000,,2013-02-06 10:42:00,
2013-02-06 03:52:00,34.0,22.0,-100.00,SW,221,1.0,12.0,60,0.00,,,0.00,0.000000,,2013-02-06 10:52:00,
2013-02-06 04:01:00,34.0,22.0,-100.00,SW,221,1.0,12.0,60,0.00,,,0.00,0.000000,,2013-02-06 11:01:00,
2013-02-06 04:32:00,33.0,16.0,-100.00,East,93,1.0,9.0,50,0.00,,,0.00,0.000000,,2013-02-06 11:32:00,
2013-02-06 04:42:00,33.0,16.0,-100.00,East,93,1.0,9.0,50,0.00,,,0.00,0.000000,,2013-02-06 11:42:00,
2013-02-06 04:52:00,33.0,16.0,-100.00,East,93,1.0,9.0,50,0.00,,,0.00,0.000000,,2013-02-06 11:52:00,
2013-02-06 05:01:00,33.0,16.0,-100.00,East,93,1.0,9.0,50,0.00,,,0.00,0.000000,,2013-02-06 12:01:00,
2013-02-06 05:32:00,33.0,16.0,-100.00,South,178,3.0,8.0,49,0.00,,,0.00,0.000000,,2013-02-06 12:32:00,
2013-02-06 05:42:00,33.0,16.0,-100.00,South,178,3.0,8.0,49,0.00,,,0.00,0.000000,,2013-02-06 12:42:00,
2013-02-06 05:52:00,33.0,16.0,-100.00,South,178,3.0,8.0,49,0.00,,,0.00,0.000000,,2013-02-06 12:52:00,
2013-02-06 06:01:00,33.0,16.0,-100.00,South,178,3.0,8.0,49,0.00,,,0.00,0.000000,,2013-02-06 13:01:00,
2013-02-06 06:32:00,30.0,14.0,-100.00,SW,235,4.0,9.0,51,0.00,,,0.00,0.000000,,2013-02-06 13:32:00,
2013-02-06 06:42:00,30.0,14.0,-100.00,SW,235,4.0,9.0,51,0.00,,,0.00,0.000000,,2013-02-06 13:42:00,
2013-02-06 06:52:00,30.0,14.0,-100.00,SW,235,4.0,9.0,51,0.00,,,0.00,0.000000,,2013-02-06 13:52:00,
2013-02-06 07:01:00,30.0,14.0,-100.00,SW,235,4.0,9.0,51,0.00,,,0.00,0.000000,,2013-02-06 14:01:00,
2013-02-06 07:32:00,32.0,15.0,-100.00,SW,228,6.0,7.0,49,0.00,,,0.00,0.000000,,2013-02-06 14:32:00,
2013-02-06 07:42:00,32.0,15.0,-100.00,SW,228,6.0,7.0,49,0.00,,,0.00,0.000000,,2013-02-06 14:42:00,
2013-02-06 07:52:00,32.0,15.0,-100.00,SW,228,6.0,7.0,49,0.00,,,0.00,0.000000,,2013-02-06 14:52:00,
2013-02-06 08:01:00,32.0,15.0,-100.00,SW,228,6.0,7.0,49,0.00,,,0.00,0.000000,,2013-02-06 15:01:00,
2013-02-06 08:32:00,32.0,14.0,-100.00,SW,230,5.0,8.0,46,0.00,,,0.00,4.000000,,2013-02-06 15:32:00,
2013-02-06 08:42:00,32.0,14.0,-100.00,SW,230,5.0,8.0,46,0.00,,,0.00,4.000000,,2013-02-06 15:42:00,
2013-02-06 08:52:00,32.0,14.0,-100.00,SW,230,5.0,8.0,46,0.00,,,0.00,4.000000,,2013-02-06 15:52:00,
2013-02-06 09:01:00,32.0,14.0,-100.00,SW,230,5.0,8.0,46,0.00,,,0.00,4.000000,,2013-02-06 16:01:00,
2013-02-06 09:22:00,33.0,17.0,-100.00,WSW,244,4.0,9.0,52,0.00,,,0.00,46.000000,,2013-02-06 16:22:00,
2013-02-06 09:32:00,33.0,17.0,-100.00,WSW,244,4.0,9.0,52,0.00,,,0.00,46.000000,,2013-02-06 16:32:00,
2013-02-06 09:42:00,33.0,17.0,-100.00,WSW,244,4.0,9.0,52,0.00,,,0.00,46.000000,,2013-02-06 16:42:00,
2013-02-06 09:52:00,33.0,17.0,-100.00,WSW,244,4.0,9.0,52,0.00,,,0.00,46.000000,,2013-02-06 16:52:00,
2013-02-06 10:01:00,33.0,17.0,-100.00,WSW,244,4.0,9.0,52,0.00,,,0.00,46.000000,,2013-02-06 17:01:00,
2013-02-06 10:22:00,39.0,14.0,-100.00,WSW,243,9.0,16.0,36,0.00,,,0.00,197.000000,,2013-02-06 17:22:00,
2013-02-06 10:32:00,39.0,14.0,-100.00,WSW,243,9.0,16.0,36,0.00,,,0.00,197.000000,,2013-02-06 17:32:00,
2013-02-06 10:42:00,39.0,14.0,-100.00,WSW,243,9.0,16.0,36,0.00,,,0.00,197.000000,,2013-02-06 17:42:00,
2013-02-06 10:52:00,39.0,14.0,-100.00,WSW,243,9.0,16.0,36,0.00,,,0.00,197.000000,,2013-02-06 17:52:00,
2013-02-06 11:01:00,39.0,14.0,-100.00,WSW,243,9.0,16.0,36,0.00,,,0.00,197.000000,,2013-02-06 18:01:00,
2013-02-06 11:23:00,38.0,15.0,-100.00,NW,312,10.0,18.0,39,0.00,,,0.00,285.000000,,2013-02-06 18:23:00,
2013-02-06 11:33:00,38.0,15.0,-100.00,NW,312,10.0,18.0,39,0.00,,,0.00,285.000000,,2013-02-06 18:33:00,
2013-02-06 11:42:00,38.0,15.0,-100.00,NW,312,10.0,18.0,39,0.00,,,0.00,285.000000,,2013-02-06 18:42:00,
2013-02-06 11:52:00,38.0,15.0,-100.00,NW,312,10.0,18.0,39,0.00,,,0.00,285.000000,,2013-02-06 18:52:00,
2013-02-06 12:01:00,38.0,15.0,-100.00,NW,312,10.0,18.0,39,0.00,,,0.00,285.000000,,2013-02-06 19:01:00,
2013-02-06 12:32:00,35.0,17.0,-100.00,ENE,70,2.0,26.0,47,0.00,,,0.00,220.000000,,2013-02-06 19:32:00,
2013-02-06 12:42:00,35.0,17.0,-100.00,ENE,70,2.0,26.0,47,0.00,,,0.00,220.000000,,2013-02-06 19:42:00,
2013-02-06 12:52:00,35.0,17.0,-100.00,ENE,70,2.0,26.0,47,0.00,,,0.00,220.000000,,2013-02-06 19:52:00,
2013-02-06 13:01:00,35.0,17.0,-100.00,ENE,70,2.0,26.0,47,0.00,,,0.00,220.000000,,2013-02-06 20:01:00,
2013-02-06 13:32:00,42.0,16.0,-100.00,West,262,11.0,21.0,34,0.00,,,0.00,407.000000,,2013-02-06 20:32:00,
2013-02-06 13:42:00,42.0,16.0,-100.00,West,262,11.0,21.0,34,0.00,,,0.00,407.000000,,2013-02-06 20:42:00,
2013-02-06 13:52:00,42.0,16.0,-100.00,West,262,11.0,21.0,34,0.00,,,0.00,407.000000,,2013-02-06 20:52:00,
2013-02-06 14:01:00,42.0,16.0,-100.00,West,262,11.0,21.0,34,0.00,,,0.00,407.000000,,2013-02-06 21:01:00,
2013-02-06 14:32:00,41.0,13.0,-100.00,WSW,246,0.0,17.0,31,0.00,,,0.00,293.000000,,2013-02-06 21:32:00,
2013-02-06 14:42:00,41.0,13.0,-100.00,WSW,246,0.0,17.0,31,0.00,,,0.00,293.000000,,2013-02-06 21:42:00,
2013-02-06 14:52:00,41.0,13.0,-100.00,WSW,246,0.0,17.0,31,0.00,,,0.00,293.000000,,2013-02-06 21:52:00,
2013-02-06 15:01:00,41.0,13.0,-100.00,WSW,246,0.0,17.0,31,0.00,,,0.00,293.000000,,2013-02-06 22:01:00,
2013-02-06 15:22:00,42.0,14.0,-100.00,NE,56,7.0,16.0,32,0.00,,,-99.99,481.000000,,2013-02-06 22:22:00,
2013-02-06 15:32:00,42.0,14.0,-100.00,NE,56,7.0,16.0,32,0.00,,,-99.99,481.000000,,2013-02-06 22:32:00,
2013-02-06 15:42:00,42.0,14.0,-100.00,NE,56,7.0,16.0,32,0.00,,,-99.99,481.000000,,2013-02-06 22:42:00,
2013-02-06 15:52:00,42.0,14.0,-100.00,NE,56,7.0,16.0,32,0.00,,,-99.99,481.000000,,2013-02-06 22:52:00,
2013-02-06 16:01:00,42.0,14.0,-100.00,NE,56,7.0,16.0,32,0.00,,,-99.99,481.000000,,2013-02-06 23:01:00,
2013-02-06 16:32:00,36.0,16.0,-100.00,ENE,60,1.0,15.0,44,0.00,,,0.00,95.000000,,2013-02-06 23:32:00,
2013-02-06 16:42:00,36.0,16.0,-100.00,ENE,60,1.0,15.0,44,0.00,,,0.00,95.000000,,2013-02-06 23:42:00,
2013-02-06 16:52:00,36.0,16.0,-100.00,ENE,60,1.0,15.0,44,0.00,,,0.00,95.000000,,2013-02-06 23:52:00,
2013-02-06 17:01:00,36.0,16.0,-100.00,ENE,60,1.0,15.0,44,0.00,,,0.00,95.000000,,2013-02-07 00:01:00,
2013-02-06 17:32:00,35.0,18.0,-100.00,SW,224,7.0,16.0,49,0.00,,,-99.99,37.000000,,2013-02-07 00:32:00,
2013-02-06 17:42:00,35.0,18.0,-100.00,SW,224,7.0,16.0,49,0.00,,,-99.99,37.000000,,2013-02-07 00:42:00,
2013-02-06 17:52:00,35.0,18.0,-100.00,SW,224,7.0,16.0,49,0.00,,,-99.99,37.000000,,2013-02-07 00:52:00,
2013-02-06 18:01:00,35.0,18.0,-100.00,SW,224,7.0,16.0,49,0.00,,,-99.99,37.000000,,2013-02-07 01:01:00,
2013-02-06 18:21:00,36.0,13.0,-100.00,WSW,254,6.0,13.0,38,0.00,,,0.00,9.000000,,2013-02-07 01:21:00,
2013-02-06 18:32:00,36.0,13.0,-100.00,WSW,254,6.0,13.0,38,0.00,,,0.00,9.000000,,2013-02-07 01:32:00,
2013-02-06 18:42:00,36.0,13.0,-100.00,WSW,254,6.0,13.0,38,0.00,,,0.00,9.000000,,2013-02-07 01:42:00,
2013-02-06 18:52:00,36.0,13.0,-100.00,WSW,254,6.0,13.0,38,0.00,,,0.00,9.000000,,2013-02-07 01:52:00,
2013-02-06 19:01:00,36.0,13.0,-100.00,WSW,254,6.0,13.0,38,0.00,,,0.00,9.000000,,2013-02-07 02:01:00,
2013-02-06 19:32:00,34.0,15.0,-100.00,SSE,149,6.0,14.0,46,0.00,,,0.00,0.000000,,2013-02-07 02:32:00,
2013-02-06 19:42:00,34.0,15.0,-100.00,SSE,149,6.0,14.0,46,0.00,,,0.00,0.000000,,2013-02-07 02:42:00,
2013-02-06 19:52:00,34.0,15.0,-100.00,SSE,149,6.0,14.0,46,0.00,,,0.00,0.000000,,2013-02-07 02:52:00,
2013-02-06 20:01:00,34.0,15.0,-100.00,SSE,149,6.0,14.0,46,0.00,,,0.00,0.000000,,2013-02-07 03:01:00,
2013-02-06 20:21:00,31.0,15.0,-100.00,SSW,209,3.0,9.0,50,0.00,,,0.00,0.000000,,2013-02-07 03:21:00,
2013-02-06 20:32:00,31.0,15.0,-100.00,SSW,209,3.0,9.0,50,0.00,,,0.00,0.000000,,2013-02-07 03:32:00,
2013-02-06 20:42:00,31.0,15.0,-100.00,SSW,209,3.0,9.0,50,0.00,,,0.00,0.000000,,2013-02-07 03:42:00,
2013-02-06 20:52:00,31.0,15.0,-100.00,SSW,209,3.0,9.0,50,0.00,,,0.00,0.000000,,2013-02-07 03:52:00,
2013-02-06 21:01:00,31.0,15.0,-100.00,SSW,209,3.0,9.0,50,0.00,,,0.00,0.000000,,2013-02-07 04:01:00,
2013-02-06 21:22:00,31.0,12.0,-100.00,SSE,164,0.0,8.0,44,0.00,,,0.00,0.000000,,2013-02-07 04:22:00,
2013-02-06 21:32:00,31.0,12.0,-100.00,SSE,164,0.0,8.0,44,0.00,,,0.00,0.000000,,2013-02-07 04:32:00,
2013-02-06 21:42:00,31.0,12.0,-100.00,SSE,164,0.0,8.0,44,0.00,,,0.00,0.000000,,2013-02-07 04:42:00,
2013-02-06 21:53:00,31.0,12.0,-100.00,SSE,164,0.0,8.0,44,0.00,,,0.00,0.000000,,2013-02-07 04:53:00,
2013-02-06 22:01:00,31.0,12.0,-100.00,SSE,164,0.0,8.0,44,0.00,,,0.00,0.000000,,2013-02-07 05:01:00,
2013-02-06 22:22:00,32.0,10.0,-100.00,SW,236,5.0,10.0,39,0.00,,,0.00,0.000000,,2013-02-07 05:22:00,
2013-02-06 22:32:00,32.0,10.0,-100.00,SW,236,5.0,10.0,39,0.00,,,0.00,0.000000,,2013-02-07 05:32:00,
2013-02-06 22:42:00,32.0,10.0,-100.00,SW,236,5.0,10.0,39,0.00,,,0.00,0.000000,,2013-02-07 05:42:00,
2013-02-06 22:52:00,32.0,10.0,-100.00,SW,236,5.0,10.0,39,0.00,,,0.00,0.000000,,2013-02-07 05:52:00,
2013-02-06 23:01:00,32.0,10.0,-100.00,SW,236,5.0,10.0,39,0.00,,,0.00,0.000000,,2013-02-07 06:01:00,
2013-02-06 23:32:00,31.0,11.0,-100.00,SSE,151,6.0,13.0,43,0.00,,,0.00,0.000000,,2013-02-07 06:32:00,
2013-02-06 23:43:00,31.0,11.0,-100.00,SSE,151,6.0,13.0,43,0.00,,,0.00,0.000000,,2013-02-07 06:43:00,
2013-02-06 23:52:00,31.0,11.0,-100.00,SSE,151,6.0,13.0,43,0.00,,,0.00,0.000000,,2013-02-07 06:52:00,